AMAZONAS NEXUS

Last updated on Sun Jun 21 2026 00:03:09 GMT+0000 (Coordinated Universal Time)

1 55508U 23017A 26170.81850470 -.00000288 00000+0 00000+0 0 9992 2 55508 0.0386 39.7222 0004742 27.7449 74.2186 1.00264811 7072
UTC large
Height (km)
Speed (km/s)
/
Latitude / Longitude
Inclination (degrees)
Orbital Period (minutes)
Azimuth
Elevation
Range (km)
Doppler Factor

Next 0 passes for location: London (51.5072 / 0.1276)

No passes found over London.
AMAZONAS NEXUS